North Platte, NE

8:59 AM CDT on June 23, 2017 (GMT -0500)
North Platte Regional-Bird

Weather History for KLBF - August, 2014

Change the Weather History Date:

Thursday, August 21, 2014

  Actual Average Record
Temperature  
Mean Temperature 76 °F 72 °F  
Max Temperature 90 °F 86 °F 101 °F (1878)
Min Temperature 62 °F 57 °F 43 °F (2016)
Degree Days  
Heating Degree Days 0 0  
Month to date heating degree days 0 0  
Since 1 June heating degree days 56 56  
Since 1 July heating degree days 17 5  
Cooling Degree Days 11 7  
Month to date cooling degree days 204 175  
Year to date cooling degree days 619 634  
Since 1 June cooling degree days 570 606  
Growing Degree Days 26 (Base 50)    
Moisture  
Dew Point 62 °F    
Average Humidity 67    
Maximum Humidity 93    
Minimum Humidity 41    
Precipitation  
Precipitation 0.00 in 0.06 in 1.84 in (1993)
Month to date precipitation 2.52 1.74  
Year to date precipitation 15.70 15.67  
Snow  
Snow 0.00 in 0.00 in 0.00 in (2002)
Month to date snowfall 0.0 0.0  
Since 1 June snowfall T 0.0  
Since 1 July snowfall 0.0 0.0  
Snow Depth 0.00 in    
Sea Level Pressure  
Sea Level Pressure 29.80 in    
Wind  
Wind Speed 5 mph (East)    
Max Wind Speed 13 mph    
Max Gust Speed 17 mph    
Visibility 10 miles    
Events Thunderstorm    
T = Trace of Precipitation, MM = Missing Value Source: NWS Daily Summary

Daily Weather History Graph

Daily Weather History Graph

Search for Another Location

Airport or City:

Trip Planner

Search our weather history database for the weather conditions in past years. The results will help you decide how hot, cold, wet, or windy it might be!

Date:

Astronomy

Aug. 21, 2014 Rise Set
Actual Time 6:58 AM CDT 8:32 PM CDT
Civil Twilight 6:29 AM CDT 9:01 PM CDT
Nautical Twilight 5:54 AM CDT 9:36 PM CDT
Astronomical Twilight 5:16 AM CDT 10:13 PM CDT
Moon 3:29 AM CDT (8/21) 6:03 PM CDT (8/21)
Length of Visible Light 14h 32m
Length of Day
13h 34m
Waning Crescent, 13% of the Moon is Illuminated
Aug 21
Waning Crescent
Aug 25
New
Sep 2
First Quarter
Sep 8
Full
Sep 15
Last Quarter

Hourly Weather History & Observations

Time (CDT) Temp. Heat Index Dew Point Humidity Pressure Visibility Wind Dir Wind Speed Gust Speed Precip Events Conditions
12:11 AM 70.0 °F - 64.9 °F 84% 29.79 in 10.0 mi Calm Calm - N/A Thunderstorm Scattered Clouds
12:53 AM 73.0 °F - 60.1 °F 64% 29.72 in 10.0 mi SE 9.2 mph - N/A   Scattered Clouds
1:53 AM 68.0 °F - 61.0 °F 78% 29.74 in 10.0 mi Calm Calm - N/A   Partly Cloudy
2:53 AM 66.0 °F - 62.1 °F 87% 29.74 in 10.0 mi ESE 4.6 mph - N/A   Clear
3:53 AM 63.0 °F - 60.1 °F 90% 29.74 in 10.0 mi WNW 3.5 mph - N/A   Clear
4:53 AM 64.0 °F - 61.0 °F 90% 29.75 in 10.0 mi NW 6.9 mph - N/A   Clear
5:53 AM 64.0 °F - 60.1 °F 87% 29.78 in 10.0 mi NNW 4.6 mph - N/A   Clear
6:53 AM 63.0 °F - 61.0 °F 93% 29.77 in 10.0 mi Calm Calm - N/A   Clear
7:53 AM 70.0 °F - 63.0 °F 78% 29.77 in 10.0 mi Calm Calm - N/A   Clear
8:53 AM 73.9 °F - 62.1 °F 66% 29.80 in 10.0 mi WNW 3.5 mph - N/A   Clear
9:53 AM 79.0 °F - 62.1 °F 56% 29.80 in 10.0 mi West 4.6 mph - N/A   Clear
10:53 AM 82.9 °F 83.7 °F 62.1 °F 49% 29.81 in 10.0 mi NE 9.2 mph - N/A   Clear
11:53 AM 84.9 °F 85.9 °F 63.0 °F 48% 29.82 in 10.0 mi NE 4.6 mph - N/A   Clear
12:53 PM 87.1 °F 88.3 °F 64.0 °F 46% 29.82 in 10.0 mi ENE 6.9 mph - N/A   Clear
1:53 PM 89.1 °F 89.3 °F 62.1 °F 40% 29.82 in 10.0 mi SE 5.8 mph - N/A   Clear
2:53 PM 89.1 °F 90.3 °F 64.0 °F 43% 29.82 in 10.0 mi SSE 5.8 mph - N/A   Clear
3:53 PM 88.0 °F 89.6 °F 64.9 °F 46% 29.82 in 10.0 mi SSE 4.6 mph - N/A   Clear
4:53 PM 89.1 °F 91.0 °F 64.9 °F 45% 29.83 in 10.0 mi SSE 6.9 mph - N/A   Clear
5:53 PM 89.1 °F 90.0 °F 63.0 °F 42% 29.83 in 10.0 mi East 6.9 mph - N/A   Scattered Clouds
6:53 PM 84.9 °F 85.4 °F 62.1 °F 46% 29.84 in 10.0 mi NE 8.1 mph - N/A   Clear
7:53 PM 81.0 °F 81.9 °F 62.1 °F 52% 29.83 in 10.0 mi NE 6.9 mph - N/A   Clear
8:53 PM 73.9 °F - 62.1 °F 66% 29.86 in 10.0 mi NE 6.9 mph - N/A   Clear
9:53 PM 70.0 °F - 61.0 °F 73% 29.88 in 10.0 mi East 3.5 mph - N/A   Clear
10:53 PM 68.0 °F - 62.1 °F 81% 29.88 in 10.0 mi ESE 4.6 mph - N/A   Clear
11:53 PM 66.9 °F - 62.1 °F 84% 29.88 in 10.0 mi East 3.5 mph - N/A   Clear